owner,sensor,date,latitude,longitude,vertical_datum,sea_water_practical_salinity,qcFlag 
SCCF RECON,ioos:station:SCCF:56:1,2017-04-01T00:00:00Z,26.4645,-82.1044,1.56,34.54,1111122 
SCCF RECON,ioos:station:SCCF:56:1,2017-04-01T01:00:00Z,26.4645,-82.1044,1.401,34.57,1111122 
SCCF RECON,ioos:station:SCCF:56:1,2017-04-01T02:00:00Z,26.4645,-82.1044,1.284,34.59,1111122 
SCCF RECON,ioos:station:SCCF:56:1,2017-04-01T03:00:00Z,26.4645,-82.1044,1.192,34.61,1111122 
SCCF RECON,ioos:station:SCCF:56:1,2017-04-01T04:00:00Z,26.4645,-82.1044,1.155,34.67,1111122 
SCCF RECON,ioos:station:SCCF:56:1,2017-04-01T05:00:00Z,26.4645,-82.1044,1.259,34.63,1111122 
SCCF RECON,ioos:station:SCCF:56:1,2017-04-01T06:00:00Z,26.4645,-82.1044,1.417,34.68,1111122 
SCCF RECON,ioos:station:SCCF:56:1,2017-04-01T07:00:00Z,26.4645,-82.1044,1.54,34.84,1111122 
SCCF RECON,ioos:station:SCCF:56:1,2017-04-01T08:00:00Z,26.4645,-82.1044,1.64,34.93,1111122 
SCCF RECON,ioos:station:SCCF:56:1,2017-04-01T09:00:00Z,26.4645,-82.1044,1.68,34.92,1111122 
SCCF RECON,ioos:station:SCCF:56:1,2017-04-01T10:00:00Z,26.4645,-82.1044,1.69,34.88,1111122 
SCCF RECON,ioos:station:SCCF:56:1,2017-04-01T11:00:00Z,26.4645,-82.1044,1.635,34.86,1111122 
SCCF RECON,ioos:station:SCCF:56:1,2017-04-01T12:00:00Z,26.4645,-82.1044,1.55,34.9,1111122 
SCCF RECON,ioos:station:SCCF:56:1,2017-04-01T13:00:00Z,26.4645,-82.1044,1.49,34.87,1111122 
SCCF RECON,ioos:station:SCCF:56:1,2017-04-01T14:00:00Z,26.4645,-82.1044,1.448,34.84,1111122 
SCCF RECON,ioos:station:SCCF:56:1,2017-04-01T15:00:00Z,26.4645,-82.1044,1.418,34.82,1111122 
SCCF RECON,ioos:station:SCCF:56:1,2017-04-01T16:00:00Z,26.4645,-82.1044,1.44,34.82,1111122 
SCCF RECON,ioos:station:SCCF:56:1,2017-04-01T17:00:00Z,26.4645,-82.1044,1.55,34.85,1111122 
SCCF RECON,ioos:station:SCCF:56:1,2017-04-01T18:00:00Z,26.4645,-82.1044,1.67,34.82,1111122 
SCCF RECON,ioos:station:SCCF:56:1,2017-04-01T19:00:00Z,26.4645,-82.1044,1.762,34.81,1111122 
SCCF RECON,ioos:station:SCCF:56:1,2017-04-01T20:00:00Z,26.4645,-82.1044,1.828,34.82,1111122 
SCCF RECON,ioos:station:SCCF:56:1,2017-04-01T21:00:00Z,26.4645,-82.1044,1.82,34.82,1111122 
SCCF RECON,ioos:station:SCCF:56:1,2017-04-01T22:00:00Z,26.4645,-82.1044,1.74,34.83,1111122 
SCCF RECON,ioos:station:SCCF:56:1,2017-04-01T23:00:00Z,26.4645,-82.1044,1.64,34.85,1111122 
SCCF RECON,ioos:station:SCCF:56:1,2017-04-02T00:00:00Z,26.4645,-82.1044,1.521,34.86,1111122 
SCCF RECON,ioos:station:SCCF:56:1,2017-04-02T01:00:00Z,26.4645,-82.1044,1.41,34.88,1111122 
SCCF RECON,ioos:station:SCCF:56:1,2017-04-02T02:00:00Z,26.4645,-82.1044,1.294,34.89,1111122 
SCCF RECON,ioos:station:SCCF:56:1,2017-04-02T03:00:00Z,26.4645,-82.1044,1.19,34.91,1111122 
SCCF RECON,ioos:station:SCCF:56:1,2017-04-02T04:00:00Z,26.4645,-82.1044,1.1,34.95,1111122 
SCCF RECON,ioos:station:SCCF:56:1,2017-04-02T05:00:00Z,26.4645,-82.1044,1.06,35.09,1111122 
SCCF RECON,ioos:station:SCCF:56:1,2017-04-02T06:00:00Z,26.4645,-82.1044,1.15,35.04,1111122 
SCCF RECON,ioos:station:SCCF:56:1,2017-04-02T07:00:00Z,26.4645,-82.1044,1.3,34.92,1111122 
SCCF RECON,ioos:station:SCCF:56:1,2017-04-02T08:00:00Z,26.4645,-82.1044,1.42,34.89,1111122 
SCCF RECON,ioos:station:SCCF:56:1,2017-04-02T09:00:00Z,26.4645,-82.1044,1.51,34.88,1111122 
SCCF RECON,ioos:station:SCCF:56:1,2017-04-02T10:00:00Z,26.4645,-82.1044,1.58,34.88,1111122 
SCCF RECON,ioos:station:SCCF:56:1,2017-04-02T11:00:00Z,26.4645,-82.1044,1.61,34.88,1111122 
SCCF RECON,ioos:station:SCCF:56:1,2017-04-02T12:00:00Z,26.4645,-82.1044,1.58,34.84,1111122 
SCCF RECON,ioos:station:SCCF:56:1,2017-04-02T13:00:00Z,26.4645,-82.1044,1.529,34.86,1111122 
SCCF RECON,ioos:station:SCCF:56:1,2017-04-02T14:00:00Z,26.4645,-82.1044,1.51,34.86,1111122 
SCCF RECON,ioos:station:SCCF:56:1,2017-04-02T15:00:00Z,26.4645,-82.1044,1.51,34.86,1111122 
SCCF RECON,ioos:station:SCCF:56:1,2017-04-02T16:00:00Z,26.4645,-82.1044,1.5,34.86,1111122 
SCCF RECON,ioos:station:SCCF:56:1,2017-04-02T17:00:00Z,26.4645,-82.1044,1.52,34.86,1111122 
SCCF RECON,ioos:station:SCCF:56:1,2017-04-02T18:00:00Z,26.4645,-82.1044,1.58,34.87,1111122 
SCCF RECON,ioos:station:SCCF:56:1,2017-04-02T19:00:00Z,26.4645,-82.1044,1.68,34.77,1111122 
SCCF RECON,ioos:station:SCCF:56:1,2017-04-02T20:00:00Z,26.4645,-82.1044,1.75,34.57,1111122 
SCCF RECON,ioos:station:SCCF:56:1,2017-04-02T21:00:00Z,26.4645,-82.1044,1.778,34.6,1111122 
SCCF RECON,ioos:station:SCCF:56:1,2017-04-02T22:00:00Z,26.4645,-82.1044,1.764,34.62,1111122 
SCCF RECON,ioos:station:SCCF:56:1,2017-04-02T23:00:00Z,26.4645,-82.1044,1.75,34.73,1111122 
SCCF RECON,ioos:station:SCCF:56:1,2017-04-03T00:00:00Z,26.4645,-82.1044,1.7,34.71,1111122 
SCCF RECON,ioos:station:SCCF:56:1,2017-04-03T01:00:00Z,26.4645,-82.1044,1.581,34.75,1111122 
SCCF RECON,ioos:station:SCCF:56:1,2017-04-03T02:00:00Z,26.4645,-82.1044,1.46,34.84,1111122 
SCCF RECON,ioos:station:SCCF:56:1,2017-04-03T03:00:00Z,26.4645,-82.1044,1.35,34.96,1111122 
SCCF RECON,ioos:station:SCCF:56:1,2017-04-03T04:00:00Z,26.4645,-82.1044,1.25,35.01,1111122 
SCCF RECON,ioos:station:SCCF:56:1,2017-04-03T05:00:00Z,26.4645,-82.1044,1.15,35.09,1111122 
SCCF RECON,ioos:station:SCCF:56:1,2017-04-03T06:00:00Z,26.4645,-82.1044,1.11,35.16,1111122 
SCCF RECON,ioos:station:SCCF:56:1,2017-04-03T07:00:00Z,26.4645,-82.1044,1.179,35.16,1111122 
SCCF RECON,ioos:station:SCCF:56:1,2017-04-03T08:00:00Z,26.4645,-82.1044,1.31,35.04,1111122 
SCCF RECON,ioos:station:SCCF:56:1,2017-04-03T09:00:00Z,26.4645,-82.1044,1.43,35.05,1111122 
SCCF RECON,ioos:station:SCCF:56:1,2017-04-03T10:00:00Z,26.4645,-82.1044,1.53,34.93,1111122 
SCCF RECON,ioos:station:SCCF:56:1,2017-04-03T11:00:00Z,26.4645,-82.1044,1.6,34.85,1111122 
SCCF RECON,ioos:station:SCCF:56:1,2017-04-03T12:00:00Z,26.4645,-82.1044,1.65,34.83,1111122 
SCCF RECON,ioos:station:SCCF:56:1,2017-04-03T13:00:00Z,26.4645,-82.1044,1.661,34.82,1111122 
SCCF RECON,ioos:station:SCCF:56:1,2017-04-03T14:00:00Z,26.4645,-82.1044,1.65,34.85,1111122 
SCCF RECON,ioos:station:SCCF:56:1,2017-04-03T15:00:00Z,26.4645,-82.1044,1.618,34.86,1111122 
SCCF RECON,ioos:station:SCCF:56:1,2017-04-03T16:00:00Z,26.4645,-82.1044,1.579,34.87,1111122 
SCCF RECON,ioos:station:SCCF:56:1,2017-04-03T17:00:00Z,26.4645,-82.1044,1.55,34.88,1111122 
SCCF RECON,ioos:station:SCCF:56:1,2017-04-03T18:00:00Z,26.4645,-82.1044,1.551,34.89,1111122 
SCCF RECON,ioos:station:SCCF:56:1,2017-04-03T19:00:00Z,26.4645,-82.1044,1.59,34.91,1111122 
SCCF RECON,ioos:station:SCCF:56:1,2017-04-03T20:00:00Z,26.4645,-82.1044,1.656,34.9,1111122 
SCCF RECON,ioos:station:SCCF:56:1,2017-04-03T21:00:00Z,26.4645,-82.1044,1.74,34.89,1111122 
SCCF RECON,ioos:station:SCCF:56:1,2017-04-03T22:00:00Z,26.4645,-82.1044,1.789,34.91,1111122 
SCCF RECON,ioos:station:SCCF:56:1,2017-04-03T23:00:00Z,26.4645,-82.1044,1.77,34.92,1111122 
SCCF RECON,ioos:station:SCCF:56:1,2017-04-04T00:00:00Z,26.4645,-82.1044,1.74,34.94,1111122 
SCCF RECON,ioos:station:SCCF:56:1,2017-04-04T01:00:00Z,26.4645,-82.1044,1.7,34.94,1111122 
SCCF RECON,ioos:station:SCCF:56:1,2017-04-04T02:00:00Z,26.4645,-82.1044,1.62,34.95,1111122 
SCCF RECON,ioos:station:SCCF:56:1,2017-04-04T03:00:00Z,26.4645,-82.1044,1.53,34.97,1111122 
SCCF RECON,ioos:station:SCCF:56:1,2017-04-04T04:00:00Z,26.4645,-82.1044,1.43,35.02,1111122 
SCCF RECON,ioos:station:SCCF:56:1,2017-04-04T05:00:00Z,26.4645,-82.1044,1.32,35.08,1111122 
SCCF RECON,ioos:station:SCCF:56:1,2017-04-04T06:00:00Z,26.4645,-82.1044,1.22,35.12,1111122 
SCCF RECON,ioos:station:SCCF:56:1,2017-04-04T07:00:00Z,26.4645,-82.1044,1.17,35.19,1111122 
SCCF RECON,ioos:station:SCCF:56:1,2017-04-04T08:00:00Z,26.4645,-82.1044,1.21,35.21,1111122 
SCCF RECON,ioos:station:SCCF:56:1,2017-04-04T09:00:00Z,26.4645,-82.1044,1.31,35.16,1111122 
SCCF RECON,ioos:station:SCCF:56:1,2017-04-04T10:00:00Z,26.4645,-82.1044,1.43,35.14,1111122 
SCCF RECON,ioos:station:SCCF:56:1,2017-04-04T11:00:00Z,26.4645,-82.1044,1.51,35.05,1111122 
SCCF RECON,ioos:station:SCCF:56:1,2017-04-04T12:00:00Z,26.4645,-82.1044,1.573,35.04,1111122 
SCCF RECON,ioos:station:SCCF:56:1,2017-04-04T13:00:00Z,26.4645,-82.1044,1.63,35.03,1111122 
SCCF RECON,ioos:station:SCCF:56:1,2017-04-04T14:00:00Z,26.4645,-82.1044,1.672,35.04,1111122 
SCCF RECON,ioos:station:SCCF:56:1,2017-04-04T15:00:00Z,26.4645,-82.1044,1.7,35.06,1111122 
SCCF RECON,ioos:station:SCCF:56:1,2017-04-04T16:00:00Z,26.4645,-82.1044,1.702,35.07,1111122 
SCCF RECON,ioos:station:SCCF:56:1,2017-04-04T17:00:00Z,26.4645,-82.1044,1.66,35.08,1111122 
SCCF RECON,ioos:station:SCCF:56:1,2017-04-04T18:00:00Z,26.4645,-82.1044,1.59,35.08,1111122 
SCCF RECON,ioos:station:SCCF:56:1,2017-04-04T19:00:00Z,26.4645,-82.1044,1.57,35.08,1111122 
SCCF RECON,ioos:station:SCCF:56:1,2017-04-04T20:00:00Z,26.4645,-82.1044,1.54,35.08,1111122 
SCCF RECON,ioos:station:SCCF:56:1,2017-04-04T21:00:00Z,26.4645,-82.1044,1.56,35.09,1111122 
SCCF RECON,ioos:station:SCCF:56:1,2017-04-04T22:00:00Z,26.4645,-82.1044,1.658,35.12,1111122 
SCCF RECON,ioos:station:SCCF:56:1,2017-04-04T23:00:00Z,26.4645,-82.1044,1.74,35.13,1111122 
SCCF RECON,ioos:station:SCCF:56:1,2017-04-05T00:00:00Z,26.4645,-82.1044,1.8,35.12,1111122 
SCCF RECON,ioos:station:SCCF:56:1,2017-04-05T01:00:00Z,26.4645,-82.1044,1.79,35.12,1111122 
SCCF RECON,ioos:station:SCCF:56:1,2017-04-05T02:00:00Z,26.4645,-82.1044,1.73,35.13,1111122 
SCCF RECON,ioos:station:SCCF:56:1,2017-04-05T03:00:00Z,26.4645,-82.1044,1.64,35.15,1111122 
SCCF RECON,ioos:station:SCCF:56:1,2017-04-05T04:00:00Z,26.4645,-82.1044,1.519,35.17,1111122 
SCCF RECON,ioos:station:SCCF:56:1,2017-04-05T05:00:00Z,26.4645,-82.1044,1.41,35.2,1111122 
SCCF RECON,ioos:station:SCCF:56:1,2017-04-05T06:00:00Z,26.4645,-82.1044,1.31,35.23,1111122 
SCCF RECON,ioos:station:SCCF:56:1,2017-04-05T07:00:00Z,26.4645,-82.1044,1.22,35.28,1111122 
SCCF RECON,ioos:station:SCCF:56:1,2017-04-05T08:00:00Z,26.4645,-82.1044,1.16,35.31,1111122 
SCCF RECON,ioos:station:SCCF:56:1,2017-04-05T09:00:00Z,26.4645,-82.1044,1.186,35.34,1111122 
SCCF RECON,ioos:station:SCCF:56:1,2017-04-05T10:00:00Z,26.4645,-82.1044,1.3,35.29,1111122 
SCCF RECON,ioos:station:SCCF:56:1,2017-04-05T11:00:00Z,26.4645,-82.1044,1.418,35.28,1111122 
SCCF RECON,ioos:station:SCCF:56:1,2017-04-05T12:00:00Z,26.4645,-82.1044,1.528,35.26,1111122 
SCCF RECON,ioos:station:SCCF:56:1,2017-04-05T13:00:00Z,26.4645,-82.1044,1.61,35.18,1111122 
SCCF RECON,ioos:station:SCCF:56:1,2017-04-05T14:00:00Z,26.4645,-82.1044,1.684,35.16,1111122 
SCCF RECON,ioos:station:SCCF:56:1,2017-04-05T15:00:00Z,26.4645,-82.1044,1.72,35.14,1111122 
SCCF RECON,ioos:station:SCCF:56:1,2017-04-05T16:00:00Z,26.4645,-82.1044,1.73,35.15,1111122 
SCCF RECON,ioos:station:SCCF:56:1,2017-04-05T17:00:00Z,26.4645,-82.1044,1.722,35.15,1111122 
SCCF RECON,ioos:station:SCCF:56:1,2017-04-05T18:00:00Z,26.4645,-82.1044,1.655,35.15,1111122 
SCCF RECON,ioos:station:SCCF:56:1,2017-04-05T19:00:00Z,26.4645,-82.1044,1.56,35.17,1111122 
SCCF RECON,ioos:station:SCCF:56:1,2017-04-05T20:00:00Z,26.4645,-82.1044,1.51,35.19,1111122 
SCCF RECON,ioos:station:SCCF:56:1,2017-04-05T21:00:00Z,26.4645,-82.1044,1.52,35.21,1111122 
SCCF RECON,ioos:station:SCCF:56:1,2017-04-05T22:00:00Z,26.4645,-82.1044,1.62,35.2,1111122 
SCCF RECON,ioos:station:SCCF:56:1,2017-04-05T23:00:00Z,26.4645,-82.1044,1.72,35.16,1111122 
SCCF RECON,ioos:station:SCCF:56:1,2017-04-06T00:00:00Z,26.4645,-82.1044,1.79,35.12,1111122 
SCCF RECON,ioos:station:SCCF:56:1,2017-04-06T01:00:00Z,26.4645,-82.1044,1.819,35.13,1111122 
SCCF RECON,ioos:station:SCCF:56:1,2017-04-06T02:00:00Z,26.4645,-82.1044,1.8,35.16,1111122 
SCCF RECON,ioos:station:SCCF:56:1,2017-04-06T03:00:00Z,26.4645,-82.1044,1.779,35.18,1111122 
SCCF RECON,ioos:station:SCCF:56:1,2017-04-06T04:00:00Z,26.4645,-82.1044,1.7,35.19,1111122 
SCCF RECON,ioos:station:SCCF:56:1,2017-04-06T05:00:00Z,26.4645,-82.1044,1.58,35.22,1111122 
SCCF RECON,ioos:station:SCCF:56:1,2017-04-06T06:00:00Z,26.4645,-82.1044,1.45,35.28,1111122 
SCCF RECON,ioos:station:SCCF:56:1,2017-04-06T07:00:00Z,26.4645,-82.1044,1.33,35.34,1111122 
SCCF RECON,ioos:station:SCCF:56:1,2017-04-06T08:00:00Z,26.4645,-82.1044,1.233,35.38,1111122 
SCCF RECON,ioos:station:SCCF:56:1,2017-04-06T09:00:00Z,26.4645,-82.1044,1.16,35.4,1111122 
SCCF RECON,ioos:station:SCCF:56:1,2017-04-06T10:00:00Z,26.4645,-82.1044,1.2,35.47,1111122 
SCCF RECON,ioos:station:SCCF:56:1,2017-04-06T11:00:00Z,26.4645,-82.1044,1.32,35.39,1111122 
SCCF RECON,ioos:station:SCCF:56:1,2017-04-06T12:00:00Z,26.4645,-82.1044,1.4,35.27,1111122 
SCCF RECON,ioos:station:SCCF:56:1,2017-04-06T13:00:00Z,26.4645,-82.1044,1.46,35.23,1111122 
SCCF RECON,ioos:station:SCCF:56:1,2017-04-06T14:00:00Z,26.4645,-82.1044,1.63,35.24,1111122 
SCCF RECON,ioos:station:SCCF:56:1,2017-04-06T15:00:00Z,26.4645,-82.1044,1.76,35.22,1111122 
SCCF RECON,ioos:station:SCCF:56:1,2017-04-06T16:00:00Z,26.4645,-82.1044,1.86,35.22,1111122 
SCCF RECON,ioos:station:SCCF:56:1,2017-04-06T17:00:00Z,26.4645,-82.1044,1.746,35.22,1111122 
SCCF RECON,ioos:station:SCCF:56:1,2017-04-06T18:00:00Z,26.4645,-82.1044,1.595,35.28,1111122 
SCCF RECON,ioos:station:SCCF:56:1,2017-04-06T19:00:00Z,26.4645,-82.1044,1.495,35.31,1111122 
SCCF RECON,ioos:station:SCCF:56:1,2017-04-06T20:00:00Z,26.4645,-82.1044,1.43,35.35,1111122 
SCCF RECON,ioos:station:SCCF:56:1,2017-04-06T21:00:00Z,26.4645,-82.1044,1.37,35.4,1111122 
SCCF RECON,ioos:station:SCCF:56:1,2017-04-06T22:00:00Z,26.4645,-82.1044,1.37,35.46,1111122 
SCCF RECON,ioos:station:SCCF:56:1,2017-04-06T23:00:00Z,26.4645,-82.1044,1.403,35.48,1111122 
SCCF RECON,ioos:station:SCCF:56:1,2017-04-07T00:00:00Z,26.4645,-82.1044,1.45,35.47,1111122 
SCCF RECON,ioos:station:SCCF:56:1,2017-04-07T01:00:00Z,26.4645,-82.1044,1.54,35.36,1111122 
SCCF RECON,ioos:station:SCCF:56:1,2017-04-07T02:00:00Z,26.4645,-82.1044,1.6,35.33,1111122 
SCCF RECON,ioos:station:SCCF:56:1,2017-04-07T03:00:00Z,26.4645,-82.1044,1.64,35.32,1111122 
SCCF RECON,ioos:station:SCCF:56:1,2017-04-07T04:00:00Z,26.4645,-82.1044,1.65,35.4,1111122 
SCCF RECON,ioos:station:SCCF:56:1,2017-04-07T05:00:00Z,26.4645,-82.1044,1.61,35.36,1111122 
SCCF RECON,ioos:station:SCCF:56:1,2017-04-07T06:00:00Z,26.4645,-82.1044,1.54,35.42,1111122 
SCCF RECON,ioos:station:SCCF:56:1,2017-04-07T07:00:00Z,26.4645,-82.1044,1.44,35.52,1111122 
SCCF RECON,ioos:station:SCCF:56:1,2017-04-07T08:00:00Z,26.4645,-82.1044,1.33,35.7,1111122 
SCCF RECON,ioos:station:SCCF:56:1,2017-04-07T09:00:00Z,26.4645,-82.1044,1.201,35.83,1111122 
SCCF RECON,ioos:station:SCCF:56:1,2017-04-07T10:00:00Z,26.4645,-82.1044,1.121,35.94,1111122 
SCCF RECON,ioos:station:SCCF:56:1,2017-04-07T11:00:00Z,26.4645,-82.1044,1.13,36.0,1111122 
SCCF RECON,ioos:station:SCCF:56:1,2017-04-07T12:00:00Z,26.4645,-82.1044,1.22,35.86,1111122 
SCCF RECON,ioos:station:SCCF:56:1,2017-04-07T13:00:00Z,26.4645,-82.1044,1.325,35.58,1111122 
SCCF RECON,ioos:station:SCCF:56:1,2017-04-07T14:00:00Z,26.4645,-82.1044,1.422,35.52,1111122 
SCCF RECON,ioos:station:SCCF:56:1,2017-04-07T15:00:00Z,26.4645,-82.1044,1.539,35.5,1111122 
SCCF RECON,ioos:station:SCCF:56:1,2017-04-07T16:00:00Z,26.4645,-82.1044,1.59,35.41,1111122 
SCCF RECON,ioos:station:SCCF:56:1,2017-04-07T17:00:00Z,26.4645,-82.1044,1.561,35.5,1111122 
SCCF RECON,ioos:station:SCCF:56:1,2017-04-07T18:00:00Z,26.4645,-82.1044,1.49,35.54,1111122 
SCCF RECON,ioos:station:SCCF:56:1,2017-04-07T19:00:00Z,26.4645,-82.1044,1.401,35.6,1111122 
SCCF RECON,ioos:station:SCCF:56:1,2017-04-07T20:00:00Z,26.4645,-82.1044,1.324,35.76,1111122 
SCCF RECON,ioos:station:SCCF:56:1,2017-04-07T21:00:00Z,26.4645,-82.1044,1.27,35.83,1111122 
SCCF RECON,ioos:station:SCCF:56:1,2017-04-07T22:00:00Z,26.4645,-82.1044,1.22,36.0,1111122 
SCCF RECON,ioos:station:SCCF:56:1,2017-04-07T23:00:00Z,26.4645,-82.1044,1.213,36.06,1111122 
SCCF RECON,ioos:station:SCCF:56:1,2017-04-08T00:00:00Z,26.4645,-82.1044,1.28,35.99,1111122 
SCCF RECON,ioos:station:SCCF:56:1,2017-04-08T01:00:00Z,26.4645,-82.1044,1.41,35.84,1111122 
SCCF RECON,ioos:station:SCCF:56:1,2017-04-08T02:00:00Z,26.4645,-82.1044,1.539,35.8,1111122 
SCCF RECON,ioos:station:SCCF:56:1,2017-04-08T03:00:00Z,26.4645,-82.1044,1.63,35.76,1111122 
SCCF RECON,ioos:station:SCCF:56:1,2017-04-08T04:00:00Z,26.4645,-82.1044,1.69,35.63,1111122 
SCCF RECON,ioos:station:SCCF:56:1,2017-04-08T05:00:00Z,26.4645,-82.1044,1.67,35.7,1111122 
SCCF RECON,ioos:station:SCCF:56:1,2017-04-08T06:00:00Z,26.4645,-82.1044,1.572,35.66,1111122 
SCCF RECON,ioos:station:SCCF:56:1,2017-04-08T07:00:00Z,26.4645,-82.1044,1.451,35.83,1111122 
SCCF RECON,ioos:station:SCCF:56:1,2017-04-08T08:00:00Z,26.4645,-82.1044,1.34,35.92,1111122 
SCCF RECON,ioos:station:SCCF:56:1,2017-04-08T09:00:00Z,26.4645,-82.1044,1.23,36.13,1111122 
SCCF RECON,ioos:station:SCCF:56:1,2017-04-08T10:00:00Z,26.4645,-82.1044,1.14,36.27,1111122 
SCCF RECON,ioos:station:SCCF:56:1,2017-04-08T11:00:00Z,26.4645,-82.1044,1.11,36.36,1111122 
SCCF RECON,ioos:station:SCCF:56:1,2017-04-08T12:00:00Z,26.4645,-82.1044,1.16,36.36,1111122 
SCCF RECON,ioos:station:SCCF:56:1,2017-04-08T13:00:00Z,26.4645,-82.1044,1.305,35.61,1111122 
SCCF RECON,ioos:station:SCCF:56:1,2017-04-08T14:00:00Z,26.4645,-82.1044,1.461,35.53,1111122 
SCCF RECON,ioos:station:SCCF:56:1,2017-04-08T15:00:00Z,26.4645,-82.1044,1.59,35.47,1111122 
SCCF RECON,ioos:station:SCCF:56:1,2017-04-08T16:00:00Z,26.4645,-82.1044,1.69,35.55,1111122 
SCCF RECON,ioos:station:SCCF:56:1,2017-04-08T17:00:00Z,26.4645,-82.1044,1.7,35.56,1111122 
SCCF RECON,ioos:station:SCCF:56:1,2017-04-08T18:00:00Z,26.4645,-82.1044,1.62,35.65,1111122 
SCCF RECON,ioos:station:SCCF:56:1,2017-04-08T19:00:00Z,26.4645,-82.1044,1.486,35.67,1111122 
SCCF RECON,ioos:station:SCCF:56:1,2017-04-08T20:00:00Z,26.4645,-82.1044,1.38,35.76,1111122 
SCCF RECON,ioos:station:SCCF:56:1,2017-04-08T21:00:00Z,26.4645,-82.1044,1.32,35.88,1111122 
SCCF RECON,ioos:station:SCCF:56:1,2017-04-08T22:00:00Z,26.4645,-82.1044,1.25,36.01,1111122 
SCCF RECON,ioos:station:SCCF:56:1,2017-04-08T23:00:00Z,26.4645,-82.1044,1.21,36.14,1111122 
SCCF RECON,ioos:station:SCCF:56:1,2017-04-09T00:00:00Z,26.4645,-82.1044,1.23,36.21,1111122 
SCCF RECON,ioos:station:SCCF:56:1,2017-04-09T01:00:00Z,26.4645,-82.1044,1.349,35.86,1111122 
SCCF RECON,ioos:station:SCCF:56:1,2017-04-09T02:00:00Z,26.4645,-82.1044,1.49,35.86,1111122 
SCCF RECON,ioos:station:SCCF:56:1,2017-04-09T03:00:00Z,26.4645,-82.1044,1.61,35.91,1111122 
SCCF RECON,ioos:station:SCCF:56:1,2017-04-09T04:00:00Z,26.4645,-82.1044,1.71,35.92,1111122 
SCCF RECON,ioos:station:SCCF:56:1,2017-04-09T05:00:00Z,26.4645,-82.1044,1.721,35.51,1111122 
SCCF RECON,ioos:station:SCCF:56:1,2017-04-09T06:00:00Z,26.4645,-82.1044,1.63,35.6,1111122 
SCCF RECON,ioos:station:SCCF:56:1,2017-04-09T07:00:00Z,26.4645,-82.1044,1.5,35.85,1111122 
SCCF RECON,ioos:station:SCCF:56:1,2017-04-09T08:00:00Z,26.4645,-82.1044,1.38,35.95,1111122 
SCCF RECON,ioos:station:SCCF:56:1,2017-04-09T09:00:00Z,26.4645,-82.1044,1.28,36.11,1111122 
SCCF RECON,ioos:station:SCCF:56:1,2017-04-09T10:00:00Z,26.4645,-82.1044,1.183,36.24,1111122 
SCCF RECON,ioos:station:SCCF:56:1,2017-04-09T11:00:00Z,26.4645,-82.1044,1.117,36.35,1111122 
SCCF RECON,ioos:station:SCCF:56:1,2017-04-09T12:00:00Z,26.4645,-82.1044,1.111,36.44,1111122 
SCCF RECON,ioos:station:SCCF:56:1,2017-04-09T13:00:00Z,26.4645,-82.1044,1.242,35.81,1111122 
SCCF RECON,ioos:station:SCCF:56:1,2017-04-09T14:00:00Z,26.4645,-82.1044,1.417,35.63,1111122 
SCCF RECON,ioos:station:SCCF:56:1,2017-04-09T15:00:00Z,26.4645,-82.1044,1.529,35.55,1111122 
SCCF RECON,ioos:station:SCCF:56:1,2017-04-09T16:00:00Z,26.4645,-82.1044,1.61,35.55,1111122 
SCCF RECON,ioos:station:SCCF:56:1,2017-04-09T17:00:00Z,26.4645,-82.1044,1.7,35.52,1111122 
SCCF RECON,ioos:station:SCCF:56:1,2017-04-09T18:00:00Z,26.4645,-82.1044,1.71,35.52,1111122 
SCCF RECON,ioos:station:SCCF:56:1,2017-04-09T19:00:00Z,26.4645,-82.1044,1.64,35.6,1111122 
SCCF RECON,ioos:station:SCCF:56:1,2017-04-09T20:00:00Z,26.4645,-82.1044,1.528,35.58,1111122 
SCCF RECON,ioos:station:SCCF:56:1,2017-04-09T21:00:00Z,26.4645,-82.1044,1.428,35.72,1111122 
SCCF RECON,ioos:station:SCCF:56:1,2017-04-09T22:00:00Z,26.4645,-82.1044,1.32,35.88,1111122 
SCCF RECON,ioos:station:SCCF:56:1,2017-04-09T23:00:00Z,26.4645,-82.1044,1.259,35.98,1111122 
SCCF RECON,ioos:station:SCCF:56:1,2017-04-10T00:00:00Z,26.4645,-82.1044,1.238,36.15,1111122 
SCCF RECON,ioos:station:SCCF:56:1,2017-04-10T01:00:00Z,26.4645,-82.1044,1.321,36.03,1111122 
SCCF RECON,ioos:station:SCCF:56:1,2017-04-10T02:00:00Z,26.4645,-82.1044,1.494,35.63,1111122 
SCCF RECON,ioos:station:SCCF:56:1,2017-04-10T03:00:00Z,26.4645,-82.1044,1.618,35.66,1111122 
SCCF RECON,ioos:station:SCCF:56:1,2017-04-10T04:00:00Z,26.4645,-82.1044,1.698,35.64,1111122 
SCCF RECON,ioos:station:SCCF:56:1,2017-04-10T05:00:00Z,26.4645,-82.1044,1.77,35.61,1111122 
SCCF RECON,ioos:station:SCCF:56:1,2017-04-10T06:00:00Z,26.4645,-82.1044,1.769,35.6,1111122 
SCCF RECON,ioos:station:SCCF:56:1,2017-04-10T07:00:00Z,26.4645,-82.1044,1.696,35.61,1111122 
SCCF RECON,ioos:station:SCCF:56:1,2017-04-10T08:00:00Z,26.4645,-82.1044,1.562,35.69,1111122 
SCCF RECON,ioos:station:SCCF:56:1,2017-04-10T09:00:00Z,26.4645,-82.1044,1.449,35.8,1111122 
SCCF RECON,ioos:station:SCCF:56:1,2017-04-10T10:00:00Z,26.4645,-82.1044,1.36,35.92,1111122 
SCCF RECON,ioos:station:SCCF:56:1,2017-04-10T11:00:00Z,26.4645,-82.1044,1.28,36.05,1111122 
SCCF RECON,ioos:station:SCCF:56:1,2017-04-10T12:00:00Z,26.4645,-82.1044,1.25,36.15,1111122 
SCCF RECON,ioos:station:SCCF:56:1,2017-04-10T13:00:00Z,26.4645,-82.1044,1.37,35.99,1111122 
SCCF RECON,ioos:station:SCCF:56:1,2017-04-10T14:00:00Z,26.4645,-82.1044,1.569,35.77,1111122 
SCCF RECON,ioos:station:SCCF:56:1,2017-04-10T15:00:00Z,26.4645,-82.1044,1.72,35.51,1111122 
SCCF RECON,ioos:station:SCCF:56:1,2017-04-10T16:00:00Z,26.4645,-82.1044,1.819,35.47,1111122 
SCCF RECON,ioos:station:SCCF:56:1,2017-04-10T17:00:00Z,26.4645,-82.1044,1.85,35.5,1111122 
SCCF RECON,ioos:station:SCCF:56:1,2017-04-10T18:00:00Z,26.4645,-82.1044,1.827,35.51,1111122 
SCCF RECON,ioos:station:SCCF:56:1,2017-04-10T19:00:00Z,26.4645,-82.1044,1.734,35.54,1111122 
SCCF RECON,ioos:station:SCCF:56:1,2017-04-10T20:00:00Z,26.4645,-82.1044,1.587,35.64,1111122 
SCCF RECON,ioos:station:SCCF:56:1,2017-04-10T21:00:00Z,26.4645,-82.1044,1.469,35.75,1111122 
SCCF RECON,ioos:station:SCCF:56:1,2017-04-10T22:00:00Z,26.4645,-82.1044,1.366,35.91,1111122 
SCCF RECON,ioos:station:SCCF:56:1,2017-04-10T23:00:00Z,26.4645,-82.1044,1.289,36.01,1111122 
SCCF RECON,ioos:station:SCCF:56:1,2017-04-11T00:00:00Z,26.4645,-82.1044,1.22,36.14,1111122 
SCCF RECON,ioos:station:SCCF:56:1,2017-04-11T01:00:00Z,26.4645,-82.1044,1.219,36.22,1111122 
SCCF RECON,ioos:station:SCCF:56:1,2017-04-11T02:00:00Z,26.4645,-82.1044,1.34,35.87,1111122 
SCCF RECON,ioos:station:SCCF:56:1,2017-04-11T03:00:00Z,26.4645,-82.1044,1.485,35.85,1111122 
SCCF RECON,ioos:station:SCCF:56:1,2017-04-11T04:00:00Z,26.4645,-82.1044,1.616,35.73,1111122 
SCCF RECON,ioos:station:SCCF:56:1,2017-04-11T05:00:00Z,26.4645,-82.1044,1.681,35.64,1111122 
SCCF RECON,ioos:station:SCCF:56:1,2017-04-11T06:00:00Z,26.4645,-82.1044,1.722,35.56,1111122 
SCCF RECON,ioos:station:SCCF:56:1,2017-04-11T07:00:00Z,26.4645,-82.1044,1.69,35.59,1111122 
SCCF RECON,ioos:station:SCCF:56:1,2017-04-11T08:00:00Z,26.4645,-82.1044,1.6,35.61,1111122 
SCCF RECON,ioos:station:SCCF:56:1,2017-04-11T09:00:00Z,26.4645,-82.1044,1.476,35.79,1111122 
SCCF RECON,ioos:station:SCCF:56:1,2017-04-11T10:00:00Z,26.4645,-82.1044,1.389,35.86,1111122 
SCCF RECON,ioos:station:SCCF:56:1,2017-04-11T11:00:00Z,26.4645,-82.1044,1.33,35.96,1111122 
SCCF RECON,ioos:station:SCCF:56:1,2017-04-11T12:00:00Z,26.4645,-82.1044,1.32,36.05,1111122 
SCCF RECON,ioos:station:SCCF:56:1,2017-04-11T13:00:00Z,26.4645,-82.1044,1.378,36.01,1111122 
SCCF RECON,ioos:station:SCCF:56:1,2017-04-11T14:00:00Z,26.4645,-82.1044,1.516,35.72,1111122 
SCCF RECON,ioos:station:SCCF:56:1,2017-04-11T15:00:00Z,26.4645,-82.1044,1.677,35.43,1111122 
SCCF RECON,ioos:station:SCCF:56:1,2017-04-11T16:00:00Z,26.4645,-82.1044,1.773,35.34,1111122 
SCCF RECON,ioos:station:SCCF:56:1,2017-04-11T17:00:00Z,26.4645,-82.1044,1.858,35.29,1111122 
SCCF RECON,ioos:station:SCCF:56:1,2017-04-11T18:00:00Z,26.4645,-82.1044,1.907,35.25,1111122 